Hourly Data Report for October 20, 2013

All times are specified in Local Standard Time (LST). Add 1 hour to adjust for Daylight Saving Time where and when it is observed.

GJOA HAVEN A
NUNAVUT

68°38'08.000" N
95°51'01.000" W
46.90 m
2302337
71597
YHK

Download Data

Hourly Data (October 2013)
Hourly Data Report for October 20, 2013
Temp Definition
°C
Dew Point Temp Definition
°C
Rel Hum Definition
%
Wind Dir Definition
10's deg

Wind Spd Definition
km/h
Visibility Definition
km
Stn Press Definition
kPa
Hmdx Definition


Wind Chill Definition


Weather Definition


TIME
00:00 Legend Double Dagger -3.1 -3.4 98 3 13 16.1 101.12   -8 LegendNANA
01:00 Legend Double Dagger -3.2 -3.5 98 3 13 16.1 101.16   -8 LegendNANA
02:00 Legend Double Dagger -3.0 -3.1 99 4 13 16.1 101.17   -8 LegendNANA
03:00 Legend Double Dagger -3.0 -3.1 99 4 11 16.1 101.20   -7 LegendNANA
04:00 Legend Double Dagger -2.8 -2.9 99 6 9 16.1 101.24   -6 LegendNANA
05:00 Legend Double Dagger -2.5 -2.7 99 5 8 16.1 101.28   -6 LegendNANA
06:00 Legend Double Dagger -2.8 -2.9 99 5 8 16.1 101.30   -6 LegendNANA
07:00 Legend Double Dagger -2.3 -2.4 99 7 5 0.4 101.33   -4 LegendNANA
08:00 Legend Double Dagger -2.4 -2.5 99 7 5 0.6 101.36   -4 LegendNANA
09:00 Legend Double Dagger -2.2 -2.2 100 20 5 0.4 101.39   -4 LegendNANA
10:00 Legend Double Dagger -1.8 -1.8 100 21 5 0.2 101.42   -4 LegendNANA
11:00 Legend Double Dagger -1.5 -1.6 99 20 11 0.8 101.45   -5 LegendNANA
12:00 Legend Double Dagger -1.7 -1.8 99 22 9 3.6 101.46   -5 LegendNANA
13:00 Legend Double Dagger -1.8 -1.9 99 23 9 16.1 101.49   -5 LegendNANA
14:00 Legend Double Dagger -1.9 -2.0 99 20 11 16.1 101.51   -6 LegendNANA
15:00 Legend Double Dagger -2.4 -2.7 98 20 9 16.1 101.54   -6 LegendNANA
16:00 Legend Double Dagger -2.2 -2.3 99 22 15 14.5 101.56   -7 LegendNANA
17:00 Legend Double Dagger -2.5 -2.6 99 21 11 6.4 101.57   -7 LegendNANA
18:00 Legend Double Dagger -2.4 -2.7 98 20 13 16.1 101.58   -7 LegendNANA
19:00 Legend Double Dagger -2.4 -2.5 99 21 13 2.0 101.60   -7 LegendNANA
20:00 Legend Double Dagger -2.6 -2.9 98 21 11 16.1 101.60   -7 LegendNANA
21:00 Legend Double Dagger -2.4 -2.7 98 21 13 16.1 101.59   -7 LegendNANA
22:00 Legend Double Dagger -2.7 -3.0 98 18 13 16.1 101.59   -7 LegendNANA
23:00 Legend Double Dagger -2.3 -2.4 99 18 13 4.0 101.60   -7 LegendNANA

Notes on Data Quality.

Legend

  • E = Estimated
  • M = Missing
  • NA = Not Available
  • ‡ = Partner data that is not subject to review by the National Climate Archives
Date modified: